| time (UTC) | temp C | wind direction | speed KPH | gust KPH | rain 1hr cm | rain 24hr cm | rain mn cm | humidity % | barometer mb |
| 20260902070053 | 11 | 296 | 0.0 | 0.0 | 0.00 | 0.00 | 0.00 | 48 | 1014.4 |
| 20260902064601 | 11 | 296 | 0.0 | 0.0 | 0.00 | 0.00 | 0.00 | 49 | 1014.3 |
| 20260902063104 | 11 | 296 | 0.0 | 0.0 | 0.00 | 0.00 | 0.00 | 52 | 1014.3 |
| 20260902060048 | 12 | 296 | 0.0 | 0.0 | 0.00 | 0.00 | 0.00 | 54 | 1013.7 |
| 20260902054547 | 12 | 296 | 0.0 | 0.0 | 0.00 | 0.00 | 0.00 | 60 | 1013.6 |
| 20260902053047 | 13 | 296 | 0.0 | 0.0 | 0.00 | 0.00 | 0.00 | 62 | 1013.7 |
| 20260902051558 | 13 | 296 | 0.0 | 0.0 | 0.00 | 0.00 | 0.00 | 61 | 1013.8 |
| 20260902050047 | 13 | 296 | 0.0 | 0.0 | 0.00 | 0.00 | 0.00 | 60 | 1013.9 |
| 20260902044604 | 14 | 296 | 0.0 | 0.0 | 0.00 | 0.00 | 0.00 | 56 | 1013.8 |
| 20260902043048 | 15 | 296 | 0.0 | 0.0 | 0.00 | 0.00 | 0.00 | 55 | 1013.6 |
| 20260902041547 | 15 | 296 | 0.0 | 0.0 | 0.00 | 0.00 | 0.00 | 55 | 1013.3 |
| 20260902040044 | 16 | 296 | 0.0 | 0.0 | 0.00 | 0.00 | 0.00 | 55 | 1013.3 |
| 20260902034543 | 16 | 296 | 0.0 | 0.0 | 0.00 | 0.00 | 0.00 | 53 | 1013.1 |
| 20260902033043 | 17 | 296 | 0.0 | 0.0 | 0.00 | 0.00 | 0.00 | 52 | 1012.8 |
| 20260902031555 | 18 | 296 | 0.0 | 0.0 | 0.00 | 0.00 | 0.00 | 50 | 1012.6 |
| 20260902030041 | 18 | 296 | 0.0 | 0.0 | 0.00 | 0.00 | 0.00 | 49 | 1012.3 |
| 20260902024550 | 19 | 296 | 0.0 | 0.0 | 0.00 | 0.00 | 0.00 | 48 | 1012.2 |
| 20260902023041 | 20 | 296 | 0.0 | 0.0 | 0.00 | 0.00 | 0.00 | 48 | 1012.2 |
| 20260902021544 | 20 | 296 | 0.0 | 0.0 | 0.00 | 0.00 | 0.00 | 47 | 1012.1 |
| 20260902020042 | 21 | 296 | 0.0 | 0.0 | 0.00 | 0.00 | 0.00 | 47 | 1012.1 |
| 20260902014541 | 21 | 234 | 0.0 | 6.4 | 0.00 | 0.00 | 0.00 | 46 | 1012.2 |
| 20260902013040 | 22 | 282 | 0.0 | 6.4 | 0.00 | 0.00 | 0.00 | 43 | 1012.1 |
| 20260902011538 | 22 | 207 | 0.0 | 14.5 | 0.00 | 0.00 | 0.00 | 42 | 1012.2 |
| 20260902010041 | 23 | 305 | 0.0 | 8.0 | 0.00 | 0.00 | 0.00 | 41 | 1012.4 |
| 20260902004537 | 23 | 316 | 0.0 | 19.3 | 0.00 | 0.00 | 0.00 | 42 | 1012.5 |
| 20260902003037 | 24 | 238 | 0.0 | 1.6 | 0.00 | 0.00 | 0.00 | 42 | 1012.4 |
| 20260902001536 | 24 | 227 | 0.0 | 20.9 | 0.00 | 0.00 | 0.00 | 40 | 1012.4 |
| 20260902000034 | 25 | 299 | 3.2 | 14.5 | 0.00 | 0.00 | 0.00 | 38 | 1012.7 |
| 20260901234534 | 25 | 217 | 0.0 | 16.1 | 0.00 | 0.00 | 0.00 | 36 | 1012.7 |
| 20260901233032 | 26 | 281 | 0.0 | 12.9 | 0.00 | 0.00 | 0.00 | 34 | 1012.8 |
| 20260901231535 | 26 | 286 | 0.0 | 16.1 | 0.00 | 0.00 | 0.00 | 35 | 1012.7 |
| 20260901230030 | 26 | 259 | 0.0 | 17.7 | 0.00 | 0.00 | 0.00 | 35 | 1012.8 |
| 20260901224528 | 26 | 324 | 3.2 | 16.1 | 0.00 | 0.00 | 0.00 | 35 | 1012.9 |
| 20260901223027 | 27 | 308 | 0.0 | 0.0 | 0.00 | 0.00 | 0.00 | 33 | 1012.9 |
| 20260901221525 | 27 | 298 | 0.0 | 19.3 | 0.00 | 0.00 | 0.00 | 30 | 1012.8 |
| 20260901220023 | 28 | 304 | 0.0 | 24.1 | 0.00 | 0.00 | 0.00 | 27 | 1012.8 |
| 20260901214522 | 28 | 300 | 1.6 | 17.7 | 0.00 | 0.00 | 0.00 | 26 | 1013.1 |
| 20260901213026 | 29 | 314 | 3.2 | 22.5 | 0.00 | 0.00 | 0.00 | 26 | 1013.2 |
| 20260901211518 | 29 | 267 | 1.6 | 22.5 | 0.00 | 0.00 | 0.00 | 26 | 1013.2 |
| 20260901210016 | 29 | 258 | 1.6 | 16.1 | 0.00 | 0.00 | 0.00 | 27 | 1013.3 |
| 20260901204517 | 29 | 304 | 0.0 | 22.5 | 0.00 | 0.00 | 0.00 | 27 | 1013.4 |
| 20260901203012 | 29 | 309 | 0.0 | 17.7 | 0.00 | 0.00 | 0.00 | 25 | 1013.5 |
| 20260901201511 | 29 | 303 | 1.6 | 19.3 | 0.00 | 0.00 | 0.00 | 27 | 1013.7 |
| 20260901200015 | 29 | 306 | 1.6 | 17.7 | 0.00 | 0.00 | 0.00 | 26 | 1013.7 |
| 20260901194508 | 29 | 307 | 0.0 | 22.5 | 0.00 | 0.00 | 0.00 | 26 | 1013.8 |
| 20260901193004 | 29 | 323 | 1.6 | 19.3 | 0.00 | 0.00 | 0.00 | 26 | 1013.8 |
| 20260901191600 | 28 | 312 | 0.0 | 20.9 | 0.00 | 0.00 | 0.00 | 24 | 1013.9 |
| 20260901190056 | 28 | 334 | 3.2 | 17.7 | 0.00 | 0.00 | 0.00 | 25 | 1014.0 |
| 20260901184600 | 28 | 277 | 3.2 | 20.9 | 0.00 | 0.00 | 0.00 | 26 | 1014.2 |
| 20260901183115 | 28 | 302 | 0.0 | 20.9 | 0.00 | 0.00 | 0.00 | 23 | 1014.3 |
| 20260901181551 | 28 | 296 | 0.0 | 17.7 | 0.00 | 0.00 | 0.00 | 21 | 1014.2 |
| 20260901180049 | 28 | 309 | 0.0 | 14.5 | 0.00 | 0.00 | 0.00 | 20 | 1014.1 |
| 20260901174547 | 28 | 311 | 1.6 | 17.7 | 0.00 | 0.00 | 0.00 | 19 | 1014.1 |
| 20260901173055 | 27 | 320 | 0.0 | 17.7 | 0.00 | 0.00 | 0.00 | 19 | 1014.2 |
| 20260901171552 | 27 | 315 | 0.0 | 6.4 | 0.00 | 0.00 | 0.00 | 17 | 1013.9 |
| 20260901170051 | 26 | 252 | 0.0 | 16.1 | 0.00 | 0.00 | 0.00 | 17 | 1013.9 |
| 20260901164535 | 26 | 314 | 0.0 | 0.0 | 0.00 | 0.00 | 0.00 | 20 | 1013.8 |
| 20260901163041 | 25 | 283 | 0.0 | 0.0 | 0.00 | 0.00 | 0.00 | 21 | 1013.6 |
| 20260901161529 | 23 | 244 | 0.0 | 0.0 | 0.00 | 0.00 | 0.00 | 20 | 1013.8 |
| 20260901160022 | 22 | 317 | 0.0 | 0.0 | 0.00 | 0.00 | 0.00 | 24 | 1013.1 |
| 20260901154518 | 19 | 301 | 0.0 | 0.0 | 0.00 | 0.00 | 0.00 | 25 | 1013.2 |
| 20260901153013 | 17 | 98 | 0.0 | 0.0 | 0.00 | 0.00 | 0.00 | 31 | 1013.2 |
| 20260901151512 | 15 | 93 | 0.0 | 0.0 | 0.00 | 0.00 | 0.00 | 34 | 1013.2 |
| 20260901150010 | 15 | 30 | 0.0 | 0.0 | 0.00 | 0.00 | 0.00 | 37 | 1013.2 |
| 20260901144510 | 14 | 30 | 0.0 | 0.0 | 0.00 | 0.00 | 0.00 | 39 | 1013.1 |
| 20260901143012 | 13 | 30 | 0.0 | 0.0 | 0.00 | 0.00 | 0.00 | 39 | 1013.2 |
| 20260901141507 | 12 | 30 | 0.0 | 0.0 | 0.00 | 0.00 | 0.00 | 39 | 1013.0 |
| 20260901140010 | 12 | 30 | 0.0 | 0.0 | 0.00 | 0.00 | 0.00 | 40 | 1012.9 |
| 20260901134509 | 12 | 30 | 0.0 | 0.0 | 0.00 | 0.00 | 0.00 | 41 | 1012.9 |
| 20260901133004 | 12 | 30 | 0.0 | 0.0 | 0.00 | 0.00 | 0.00 | 40 | 1012.9 |
| 20260901131502 | 12 | 30 | 0.0 | 0.0 | 0.00 | 0.00 | 0.00 | 41 | 1012.6 |
| 20260901130002 | 12 | 30 | 0.0 | 0.0 | 0.00 | 0.00 | 0.00 | 40 | 1012.7 |
| 20260901124601 | 12 | 30 | 0.0 | 0.0 | 0.00 | 0.00 | 0.00 | 41 | 1012.6 |
| 20260901123059 | 12 | 30 | 0.0 | 0.0 | 0.00 | 0.00 | 0.00 | 42 | 1012.5 |
| 20260901121603 | 12 | 29 | 0.0 | 0.0 | 0.00 | 0.00 | 0.00 | 44 | 1012.4 |
| 20260901120105 | 12 | 30 | 0.0 | 0.0 | 0.00 | 0.00 | 0.00 | 47 | 1012.4 |
| 20260901114557 | 12 | 30 | 0.0 | 0.0 | 0.00 | 0.00 | 0.00 | 48 | 1012.2 |
| 20260901113052 | 12 | 30 | 0.0 | 0.0 | 0.00 | 0.00 | 0.00 | 49 | 1012.1 |
| 20260901111557 | 12 | 29 | 0.0 | 0.0 | 0.00 | 0.00 | 0.00 | 49 | 1011.9 |
| 20260901110052 | 12 | 30 | 0.0 | 0.0 | 0.00 | 0.00 | 0.00 | 50 | 1011.9 |
| 20260901104547 | 12 | 29 | 0.0 | 0.0 | 0.00 | 0.00 | 0.00 | 52 | 1011.8 |
| 20260901103054 | 12 | 30 | 0.0 | 0.0 | 0.00 | 0.00 | 0.00 | 51 | 1011.9 |
| 20260901101547 | 12 | 30 | 0.0 | 0.0 | 0.00 | 0.00 | 0.00 | 52 | 1011.9 |
| 20260901100049 | 12 | 30 | 0.0 | 0.0 | 0.00 | 0.00 | 0.00 | 52 | 1012.0 |
| 20260901094540 | 12 | 30 | 0.0 | 0.0 | 0.00 | 0.00 | 0.00 | 52 | 1012.2 |
| 20260901093038 | 12 | 30 | 0.0 | 0.0 | 0.00 | 0.00 | 0.00 | 53 | 1012.1 |
| 20260901091536 | 13 | 30 | 0.0 | 0.0 | 0.00 | 0.00 | 0.00 | 50 | 1012.2 |
| 20260901090033 | 13 | 30 | 0.0 | 0.0 | 0.00 | 0.00 | 0.00 | 49 | 1012.2 |
| 20260901084532 | 13 | 30 | 0.0 | 0.0 | 0.00 | 0.00 | 0.00 | 48 | 1012.2 |
| 20260901083029 | 13 | 30 | 0.0 | 0.0 | 0.00 | 0.00 | 0.00 | 47 | 1012.2 |
| 20260901081526 | 13 | 30 | 0.0 | 0.0 | 0.00 | 0.00 | 0.00 | 46 | 1012.2 |
| 20260901080025 | 13 | 30 | 0.0 | 0.0 | 0.00 | 0.00 | 0.00 | 46 | 1012.4 |
| 20260901074523 | 14 | 30 | 0.0 | 0.0 | 0.00 | 0.00 | 0.00 | 47 | 1012.3 |
| 20260901073019 | 14 | 30 | 0.0 | 0.0 | 0.00 | 0.00 | 0.00 | 51 | 1012.2 |
| 20260901071516 | 14 | 30 | 0.0 | 0.0 | 0.00 | 0.00 | 0.00 | 60 | 1012.4 |